TITAN 3C TRANSTAGE DEB, 43447

Orbit data source: Space-Track

TITAN 3C TRANSTAGE DEB, 43447 is space debris originally from a launch on Sun, 09 Feb 1969 UTC launched from the Air Force Eastern Test Range (AFETR). Debris objects in space refer to the collection of defunct objects orbiting the Earth. Examples of debris include non-operational satellites, rocket bodies, and fragments generated from explosions, collisions, or faulty payload assembly.

Not visible in the next 10 days
TITAN 3C TRANSTAGE DEB details
Identifier
43447, 1969-013G
Orbit
Active
Last TLE update1 day ago
Origin
Flag of USUSAF SMC (US)
ManufacturerMartin Marietta
MissionSpacecraft
Bus & MotorUnknown
MassUnknown
Launch date (UTC)
1969-02-09 (56 years ago)
Launch vehicleUnknown
Launch site
Air Force Eastern Test Range (AFETR)
Object type
Payload
Rocket body
Debris
Shape & HBRUnknown
Radar Cross SectionRCS unknown

Expand to show TLE details & history

TLE from 1 day ago
0 TITAN 3C TRANSTAGE DEB
1 43447U 69013G   24325.44285682 -.00000247  00000-0  00000-0 0  9990
2 43447   0.2566 278.3875 0137034 180.6326 262.5533  0.97141058 23698
Epoch: 2024-11-20T10:37Z
Definitive object data (Epoch: 2024-11-20T10:37:42.829Z)
Latitude0.27122°
Longitude140.63245°
Altitude36,769.452 km
Speed3.037 km/s
True Right ascension23h 59m 59s
True Declination0° 16' 15"
Sunlit
Object was in daylight at TLE epoch
Visualization TLE readout
Latitude0.26779°
Longitude140.95321°
Altitude36,766.56 km
Speed3.037 km/s
Apparent Right ascension23h 41m 33s
Apparent Declination-4° 47' 21"
Sunlit
Object is in daylight
Visualization observer readout
Local Sidereal Time08:24:44
Azimuth295.121° NW
Elevation-33.568°
Doppler factor1
Orbital elements
Apogee altitude37,278.952 km
Perigee altitude36,098.625 km
Semi-major axis43,066.926 km
Eccentricity0.0137034
Inclination0.2566°
RAAN278.3875°
Arg. of periapsis180.6326°
True anomaly260.99989°
Mean anomaly262.5533°
Eccentric anomaly261.77623°
Mean motion0.24284 °/min
BSTARUnknown
Orbital period1482.43 mins
Loading maneuver chart data...

TITAN 3C TRANSTAGE DEB Visibility forecast

Observer location: undefined°, undefined

TITAN 3C TRANSTAGE DEB is not visible in the next 10 days
Span
Click to sort rows by Start time (UTC) header in descending order
Start Az.
Max El. time (UTC)
Max El. Az.
Max El.
End time (UTC)
End Az.
|